Index of /20260430/WXO-DD/model_rdps/10km/12/019
Name Last modified Size Description
Parent Directory -
20260430T12Z_MSC_RDPS_AbsoluteVorticity_IsbL-0250_RLatLon0.09_PT019H.grib2 2026-04-30 14:45 498K
20260430T12Z_MSC_RDPS_AbsoluteVorticity_IsbL-0500_RLatLon0.09_PT019H.grib2 2026-04-30 14:45 558K
20260430T12Z_MSC_RDPS_AbsoluteVorticity_IsbL-0700_RLatLon0.09_PT019H.grib2 2026-04-30 14:45 622K
20260430T12Z_MSC_RDPS_AbsoluteVorticity_IsbL-0850_RLatLon0.09_PT019H.grib2 2026-04-30 14:45 769K
20260430T12Z_MSC_RDPS_AirTemp_AGL-120m_RLatLon0.09_PT019H.grib2 2026-04-30 14:45 372K
20260430T12Z_MSC_RDPS_AirTemp_AGL-2m_RLatLon0.09_PT019H.grib2 2026-04-30 14:45 631K
20260430T12Z_MSC_RDPS_AirTemp_AGL-40m_RLatLon0.09_PT019H.grib2 2026-04-30 14:45 407K
20260430T12Z_MSC_RDPS_AirTemp_AGL-80m_RLatLon0.09_PT019H.grib2 2026-04-30 14:45 381K
20260430T12Z_MSC_RDPS_AirTemp_IsbL-0001_RLatLon0.09_PT019H.grib2 2026-04-30 14:45 250K
20260430T12Z_MSC_RDPS_AirTemp_IsbL-0005_RLatLon0.09_PT019H.grib2 2026-04-30 14:45 285K
20260430T12Z_MSC_RDPS_AirTemp_IsbL-0010_RLatLon0.09_PT019H.grib2 2026-04-30 14:45 296K
20260430T12Z_MSC_RDPS_AirTemp_IsbL-0020_RLatLon0.09_PT019H.grib2 2026-04-30 14:45 310K
20260430T12Z_MSC_RDPS_AirTemp_IsbL-0030_RLatLon0.09_PT019H.grib2 2026-04-30 14:45 332K
20260430T12Z_MSC_RDPS_AirTemp_IsbL-0050_RLatLon0.09_PT019H.grib2 2026-04-30 14:45 309K
20260430T12Z_MSC_RDPS_AirTemp_IsbL-0100_RLatLon0.09_PT019H.grib2 2026-04-30 14:45 387K
20260430T12Z_MSC_RDPS_AirTemp_IsbL-0150_RLatLon0.09_PT019H.grib2 2026-04-30 14:45 419K
20260430T12Z_MSC_RDPS_AirTemp_IsbL-0175_RLatLon0.09_PT019H.grib2 2026-04-30 14:45 411K
20260430T12Z_MSC_RDPS_AirTemp_IsbL-0200_RLatLon0.09_PT019H.grib2 2026-04-30 14:45 415K
20260430T12Z_MSC_RDPS_AirTemp_IsbL-0225_RLatLon0.09_PT019H.grib2 2026-04-30 14:45 416K
20260430T12Z_MSC_RDPS_AirTemp_IsbL-0250_RLatLon0.09_PT019H.grib2 2026-04-30 14:45 424K
20260430T12Z_MSC_RDPS_AirTemp_IsbL-0275_RLatLon0.09_PT019H.grib2 2026-04-30 14:45 403K
20260430T12Z_MSC_RDPS_AirTemp_IsbL-0300_RLatLon0.09_PT019H.grib2 2026-04-30 14:45 410K
20260430T12Z_MSC_RDPS_AirTemp_IsbL-0350_RLatLon0.09_PT019H.grib2 2026-04-30 14:45 423K
20260430T12Z_MSC_RDPS_AirTemp_IsbL-0400_RLatLon0.09_PT019H.grib2 2026-04-30 14:45 424K
20260430T12Z_MSC_RDPS_AirTemp_IsbL-0450_RLatLon0.09_PT019H.grib2 2026-04-30 14:45 395K
20260430T12Z_MSC_RDPS_AirTemp_IsbL-0500_RLatLon0.09_PT019H.grib2 2026-04-30 14:45 405K
20260430T12Z_MSC_RDPS_AirTemp_IsbL-0550_RLatLon0.09_PT019H.grib2 2026-04-30 14:45 422K
20260430T12Z_MSC_RDPS_AirTemp_IsbL-0600_RLatLon0.09_PT019H.grib2 2026-04-30 14:45 444K
20260430T12Z_MSC_RDPS_AirTemp_IsbL-0650_RLatLon0.09_PT019H.grib2 2026-04-30 14:45 461K
20260430T12Z_MSC_RDPS_AirTemp_IsbL-0700_RLatLon0.09_PT019H.grib2 2026-04-30 14:45 376K
20260430T12Z_MSC_RDPS_AirTemp_IsbL-0750_RLatLon0.09_PT019H.grib2 2026-04-30 14:45 405K
20260430T12Z_MSC_RDPS_AirTemp_IsbL-0800_RLatLon0.09_PT019H.grib2 2026-04-30 14:45 445K
20260430T12Z_MSC_RDPS_AirTemp_IsbL-0850_RLatLon0.09_PT019H.grib2 2026-04-30 14:45 491K
20260430T12Z_MSC_RDPS_AirTemp_IsbL-0875_RLatLon0.09_PT019H.grib2 2026-04-30 14:45 510K
20260430T12Z_MSC_RDPS_AirTemp_IsbL-0900_RLatLon0.09_PT019H.grib2 2026-04-30 14:45 520K
20260430T12Z_MSC_RDPS_AirTemp_IsbL-0925_RLatLon0.09_PT019H.grib2 2026-04-30 14:45 519K
20260430T12Z_MSC_RDPS_AirTemp_IsbL-0950_RLatLon0.09_PT019H.grib2 2026-04-30 14:45 522K
20260430T12Z_MSC_RDPS_AirTemp_IsbL-0970_RLatLon0.09_PT019H.grib2 2026-04-30 14:45 515K
20260430T12Z_MSC_RDPS_AirTemp_IsbL-0985_RLatLon0.09_PT019H.grib2 2026-04-30 14:45 503K
20260430T12Z_MSC_RDPS_AirTemp_IsbL-1000_RLatLon0.09_PT019H.grib2 2026-04-30 14:45 487K
20260430T12Z_MSC_RDPS_AirTemp_IsbL-1015_RLatLon0.09_PT019H.grib2 2026-04-30 14:45 485K
20260430T12Z_MSC_RDPS_Albedo_Sfc_RLatLon0.09_PT019H.grib2 2026-04-30 14:45 159K
20260430T12Z_MSC_RDPS_CAPE_Sfc_RLatLon0.09_PT019H.grib2 2026-04-30 14:45 1.6M
20260430T12Z_MSC_RDPS_CIN_Sfc_RLatLon0.09_PT019H.grib2 2026-04-30 14:45 1.1M
20260430T12Z_MSC_RDPS_CloudWater_EAtm_RLatLon0.09_PT019H.grib2 2026-04-30 14:45 218K
20260430T12Z_MSC_RDPS_ConvectivePrecip-Accum_Sfc_RLatLon0.09_PT019H.grib2 2026-04-30 14:45 763K
20260430T12Z_MSC_RDPS_DewPointDepression_AGL-2m_RLatLon0.09_PT019H.grib2 2026-04-30 14:45 394K
20260430T12Z_MSC_RDPS_DewPointDepression_IsbL-0001_RLatLon0.09_PT019H.grib2 2026-04-30 14:45 193
20260430T12Z_MSC_RDPS_DewPointDepression_IsbL-0005_RLatLon0.09_PT019H.grib2 2026-04-30 14:45 193
20260430T12Z_MSC_RDPS_DewPointDepression_IsbL-0010_RLatLon0.09_PT019H.grib2 2026-04-30 14:45 193
20260430T12Z_MSC_RDPS_DewPointDepression_IsbL-0020_RLatLon0.09_PT019H.grib2 2026-04-30 14:45 193
20260430T12Z_MSC_RDPS_DewPointDepression_IsbL-0030_RLatLon0.09_PT019H.grib2 2026-04-30 14:45 193
20260430T12Z_MSC_RDPS_DewPointDepression_IsbL-0050_RLatLon0.09_PT019H.grib2 2026-04-30 14:45 81K
20260430T12Z_MSC_RDPS_DewPointDepression_IsbL-0100_RLatLon0.09_PT019H.grib2 2026-04-30 14:45 129K
20260430T12Z_MSC_RDPS_DewPointDepression_IsbL-0150_RLatLon0.09_PT019H.grib2 2026-04-30 14:45 149K
20260430T12Z_MSC_RDPS_DewPointDepression_IsbL-0175_RLatLon0.09_PT019H.grib2 2026-04-30 14:45 179K
20260430T12Z_MSC_RDPS_DewPointDepression_IsbL-0200_RLatLon0.09_PT019H.grib2 2026-04-30 14:45 216K
20260430T12Z_MSC_RDPS_DewPointDepression_IsbL-0225_RLatLon0.09_PT019H.grib2 2026-04-30 14:45 260K
20260430T12Z_MSC_RDPS_DewPointDepression_IsbL-0250_RLatLon0.09_PT019H.grib2 2026-04-30 14:45 300K
20260430T12Z_MSC_RDPS_DewPointDepression_IsbL-0275_RLatLon0.09_PT019H.grib2 2026-04-30 14:45 305K
20260430T12Z_MSC_RDPS_DewPointDepression_IsbL-0300_RLatLon0.09_PT019H.grib2 2026-04-30 14:45 325K
20260430T12Z_MSC_RDPS_DewPointDepression_IsbL-0350_RLatLon0.09_PT019H.grib2 2026-04-30 14:45 329K
20260430T12Z_MSC_RDPS_DewPointDepression_IsbL-0400_RLatLon0.09_PT019H.grib2 2026-04-30 14:45 339K
20260430T12Z_MSC_RDPS_DewPointDepression_IsbL-0450_RLatLon0.09_PT019H.grib2 2026-04-30 14:45 346K
20260430T12Z_MSC_RDPS_DewPointDepression_IsbL-0500_RLatLon0.09_PT019H.grib2 2026-04-30 14:45 347K
20260430T12Z_MSC_RDPS_DewPointDepression_IsbL-0550_RLatLon0.09_PT019H.grib2 2026-04-30 14:45 359K
20260430T12Z_MSC_RDPS_DewPointDepression_IsbL-0600_RLatLon0.09_PT019H.grib2 2026-04-30 14:45 375K
20260430T12Z_MSC_RDPS_DewPointDepression_IsbL-0650_RLatLon0.09_PT019H.grib2 2026-04-30 14:45 381K
20260430T12Z_MSC_RDPS_DewPointDepression_IsbL-0700_RLatLon0.09_PT019H.grib2 2026-04-30 14:45 391K
20260430T12Z_MSC_RDPS_DewPointDepression_IsbL-0750_RLatLon0.09_PT019H.grib2 2026-04-30 14:45 407K
20260430T12Z_MSC_RDPS_DewPointDepression_IsbL-0800_RLatLon0.09_PT019H.grib2 2026-04-30 14:45 436K
20260430T12Z_MSC_RDPS_DewPointDepression_IsbL-0850_RLatLon0.09_PT019H.grib2 2026-04-30 14:45 463K
20260430T12Z_MSC_RDPS_DewPointDepression_IsbL-0875_RLatLon0.09_PT019H.grib2 2026-04-30 14:45 468K
20260430T12Z_MSC_RDPS_DewPointDepression_IsbL-0900_RLatLon0.09_PT019H.grib2 2026-04-30 14:45 459K
20260430T12Z_MSC_RDPS_DewPointDepression_IsbL-0925_RLatLon0.09_PT019H.grib2 2026-04-30 14:45 445K
20260430T12Z_MSC_RDPS_DewPointDepression_IsbL-0950_RLatLon0.09_PT019H.grib2 2026-04-30 14:45 441K
20260430T12Z_MSC_RDPS_DewPointDepression_IsbL-0970_RLatLon0.09_PT019H.grib2 2026-04-30 14:45 432K
20260430T12Z_MSC_RDPS_DewPointDepression_IsbL-0985_RLatLon0.09_PT019H.grib2 2026-04-30 14:45 427K
20260430T12Z_MSC_RDPS_DewPointDepression_IsbL-1000_RLatLon0.09_PT019H.grib2 2026-04-30 14:45 421K
20260430T12Z_MSC_RDPS_DewPointDepression_IsbL-1015_RLatLon0.09_PT019H.grib2 2026-04-30 14:45 412K
20260430T12Z_MSC_RDPS_DewPoint_AGL-2m_RLatLon0.09_PT019H.grib2 2026-04-30 14:45 306K
20260430T12Z_MSC_RDPS_DownwardLongwaveRadiationFlux-Accum_Sfc_RLatLon0.09_PT019H.grib2 2026-04-30 14:45 403K
20260430T12Z_MSC_RDPS_DownwardShortwaveRadiationFlux-Accum_NTAtm_RLatLon0.09_PT019H.grib2 2026-04-30 14:45 104K
20260430T12Z_MSC_RDPS_DownwardShortwaveRadiationFlux-Accum_Sfc_RLatLon0.09_PT019H.grib2 2026-04-30 14:45 611K
20260430T12Z_MSC_RDPS_FreezingRain-Accum1h_Sfc_RLatLon0.09_PT019H.grib2 2026-04-30 14:45 38K
20260430T12Z_MSC_RDPS_FreezingRain-Accum_Sfc_RLatLon0.09_PT019H.grib2 2026-04-30 14:45 105K
20260430T12Z_MSC_RDPS_GeopotentialHeight_IsbL-0001_RLatLon0.09_PT019H.grib2 2026-04-30 14:45 235K
20260430T12Z_MSC_RDPS_GeopotentialHeight_IsbL-0005_RLatLon0.09_PT019H.grib2 2026-04-30 14:45 297K
20260430T12Z_MSC_RDPS_GeopotentialHeight_IsbL-0010_RLatLon0.09_PT019H.grib2 2026-04-30 14:45 300K
20260430T12Z_MSC_RDPS_GeopotentialHeight_IsbL-0020_RLatLon0.09_PT019H.grib2 2026-04-30 14:45 299K
20260430T12Z_MSC_RDPS_GeopotentialHeight_IsbL-0030_RLatLon0.09_PT019H.grib2 2026-04-30 14:45 300K
20260430T12Z_MSC_RDPS_GeopotentialHeight_IsbL-0050_RLatLon0.09_PT019H.grib2 2026-04-30 14:45 303K
20260430T12Z_MSC_RDPS_GeopotentialHeight_IsbL-0100_RLatLon0.09_PT019H.grib2 2026-04-30 14:45 282K
20260430T12Z_MSC_RDPS_GeopotentialHeight_IsbL-0150_RLatLon0.09_PT019H.grib2 2026-04-30 14:45 225K
20260430T12Z_MSC_RDPS_GeopotentialHeight_IsbL-0175_RLatLon0.09_PT019H.grib2 2026-04-30 14:45 259K
20260430T12Z_MSC_RDPS_GeopotentialHeight_IsbL-0200_RLatLon0.09_PT019H.grib2 2026-04-30 14:45 262K
20260430T12Z_MSC_RDPS_GeopotentialHeight_IsbL-0225_RLatLon0.09_PT019H.grib2 2026-04-30 14:45 263K
20260430T12Z_MSC_RDPS_GeopotentialHeight_IsbL-0250_RLatLon0.09_PT019H.grib2 2026-04-30 14:45 265K
20260430T12Z_MSC_RDPS_GeopotentialHeight_IsbL-0275_RLatLon0.09_PT019H.grib2 2026-04-30 14:45 264K
20260430T12Z_MSC_RDPS_GeopotentialHeight_IsbL-0300_RLatLon0.09_PT019H.grib2 2026-04-30 14:45 264K
20260430T12Z_MSC_RDPS_GeopotentialHeight_IsbL-0350_RLatLon0.09_PT019H.grib2 2026-04-30 14:45 229K
20260430T12Z_MSC_RDPS_GeopotentialHeight_IsbL-0400_RLatLon0.09_PT019H.grib2 2026-04-30 14:45 226K
20260430T12Z_MSC_RDPS_GeopotentialHeight_IsbL-0450_RLatLon0.09_PT019H.grib2 2026-04-30 14:45 293K
20260430T12Z_MSC_RDPS_GeopotentialHeight_IsbL-0500_RLatLon0.09_PT019H.grib2 2026-04-30 14:45 289K
20260430T12Z_MSC_RDPS_GeopotentialHeight_IsbL-0550_RLatLon0.09_PT019H.grib2 2026-04-30 14:45 285K
20260430T12Z_MSC_RDPS_GeopotentialHeight_IsbL-0600_RLatLon0.09_PT019H.grib2 2026-04-30 14:45 282K
20260430T12Z_MSC_RDPS_GeopotentialHeight_IsbL-0650_RLatLon0.09_PT019H.grib2 2026-04-30 14:45 252K
20260430T12Z_MSC_RDPS_GeopotentialHeight_IsbL-0700_RLatLon0.09_PT019H.grib2 2026-04-30 14:45 332K
20260430T12Z_MSC_RDPS_GeopotentialHeight_IsbL-0750_RLatLon0.09_PT019H.grib2 2026-04-30 14:45 334K
20260430T12Z_MSC_RDPS_GeopotentialHeight_IsbL-0800_RLatLon0.09_PT019H.grib2 2026-04-30 14:45 341K
20260430T12Z_MSC_RDPS_GeopotentialHeight_IsbL-0850_RLatLon0.09_PT019H.grib2 2026-04-30 14:45 350K
20260430T12Z_MSC_RDPS_GeopotentialHeight_IsbL-0875_RLatLon0.09_PT019H.grib2 2026-04-30 14:45 351K
20260430T12Z_MSC_RDPS_GeopotentialHeight_IsbL-0900_RLatLon0.09_PT019H.grib2 2026-04-30 14:45 356K
20260430T12Z_MSC_RDPS_GeopotentialHeight_IsbL-0925_RLatLon0.09_PT019H.grib2 2026-04-30 14:45 358K
20260430T12Z_MSC_RDPS_GeopotentialHeight_IsbL-0950_RLatLon0.09_PT019H.grib2 2026-04-30 14:45 363K
20260430T12Z_MSC_RDPS_GeopotentialHeight_IsbL-0970_RLatLon0.09_PT019H.grib2 2026-04-30 14:45 369K
20260430T12Z_MSC_RDPS_GeopotentialHeight_IsbL-0985_RLatLon0.09_PT019H.grib2 2026-04-30 14:45 377K
20260430T12Z_MSC_RDPS_GeopotentialHeight_IsbL-1000_RLatLon0.09_PT019H.grib2 2026-04-30 14:45 388K
20260430T12Z_MSC_RDPS_GeopotentialHeight_IsbL-1015_RLatLon0.09_PT019H.grib2 2026-04-30 14:45 403K
20260430T12Z_MSC_RDPS_Humidex_Sfc_RLatLon0.09_PT019H.grib2 2026-04-30 14:45 2.4M
20260430T12Z_MSC_RDPS_IcePellets-Accum1h_Sfc_RLatLon0.09_PT019H.grib2 2026-04-30 14:45 4.5K
20260430T12Z_MSC_RDPS_IcePellets-Accum_Sfc_RLatLon0.09_PT019H.grib2 2026-04-30 14:45 8.1K
20260430T12Z_MSC_RDPS_KIndex_Sfc_RLatLon0.09_PT019H.grib2 2026-04-30 14:45 2.5M
20260430T12Z_MSC_RDPS_LatentHeatNetFlux_Sfc_RLatLon0.09_PT019H.grib2 2026-04-30 14:45 399K
20260430T12Z_MSC_RDPS_LiftedIndex-MU-VT_IsbL-0500_RLatLon0.09_PT019H.grib2 2026-04-30 14:45 2.4M
20260430T12Z_MSC_RDPS_NetLongwaveRadiationFlux-Accum_Sfc_RLatLon0.09_PT019H.grib2 2026-04-30 14:45 539K
20260430T12Z_MSC_RDPS_NetShortwaveRadiationFlux-Accum_Sfc_RLatLon0.09_PT019H.grib2 2026-04-30 14:45 606K
20260430T12Z_MSC_RDPS_PlanetaryBoundaryLayerHeight_Sfc_RLatLon0.09_PT019H.grib2 2026-04-30 14:45 1.1M
20260430T12Z_MSC_RDPS_Precip-Accum1h_Sfc_RLatLon0.09_PT019H.grib2 2026-04-30 14:45 1.2M
20260430T12Z_MSC_RDPS_Precip-Accum_Sfc_RLatLon0.09_PT019H.grib2 2026-04-30 14:45 1.6M
20260430T12Z_MSC_RDPS_PrecipRate_Sfc_RLatLon0.09_PT019H.grib2 2026-04-30 14:45 169K
20260430T12Z_MSC_RDPS_PrecipType-Instant_Sfc_RLatLon0.09_PT019H.grib2 2026-04-30 14:45 556K
20260430T12Z_MSC_RDPS_Pressure-Trend3h_Sfc_RLatLon0.09_PT019H.grib2 2026-04-30 14:45 1.2M
20260430T12Z_MSC_RDPS_Pressure_MSL_RLatLon0.09_PT019H.grib2 2026-04-30 14:45 322K
20260430T12Z_MSC_RDPS_Pressure_PVU-1.5_RLatLon0.09_PT019H.grib2 2026-04-30 14:45 2.3M
20260430T12Z_MSC_RDPS_Pressure_PVU-1_RLatLon0.09_PT019H.grib2 2026-04-30 14:45 2.4M
20260430T12Z_MSC_RDPS_Pressure_PVU-2_RLatLon0.09_PT019H.grib2 2026-04-30 14:45 2.4M
20260430T12Z_MSC_RDPS_Pressure_Sfc_RLatLon0.09_PT019H.grib2 2026-04-30 14:45 499K
20260430T12Z_MSC_RDPS_RadiativeTemp_Sfc_RLatLon0.09_PT019H.grib2 2026-04-30 14:45 304K
20260430T12Z_MSC_RDPS_Rain-Accum1h_Sfc_RLatLon0.09_PT019H.grib2 2026-04-30 14:45 511K
20260430T12Z_MSC_RDPS_Rain-Accum_Sfc_RLatLon0.09_PT019H.grib2 2026-04-30 14:45 1.2M
20260430T12Z_MSC_RDPS_RelativeHumidity_AGL-2m_RLatLon0.09_PT019H.grib2 2026-04-30 14:45 1.0M
20260430T12Z_MSC_RDPS_RelativeHumidity_IsbL-0010_RLatLon0.09_PT019H.grib2 2026-04-30 14:45 639K
20260430T12Z_MSC_RDPS_RelativeHumidity_IsbL-0020_RLatLon0.09_PT019H.grib2 2026-04-30 14:45 678K
20260430T12Z_MSC_RDPS_RelativeHumidity_IsbL-0030_RLatLon0.09_PT019H.grib2 2026-04-30 14:45 601K
20260430T12Z_MSC_RDPS_RelativeHumidity_IsbL-0050_RLatLon0.09_PT019H.grib2 2026-04-30 14:45 312K
20260430T12Z_MSC_RDPS_RelativeHumidity_IsbL-0100_RLatLon0.09_PT019H.grib2 2026-04-30 14:45 284K
20260430T12Z_MSC_RDPS_RelativeHumidity_IsbL-0150_RLatLon0.09_PT019H.grib2 2026-04-30 14:45 404K
20260430T12Z_MSC_RDPS_RelativeHumidity_IsbL-0175_RLatLon0.09_PT019H.grib2 2026-04-30 14:45 469K
20260430T12Z_MSC_RDPS_RelativeHumidity_IsbL-0200_RLatLon0.09_PT019H.grib2 2026-04-30 14:45 551K
20260430T12Z_MSC_RDPS_RelativeHumidity_IsbL-0225_RLatLon0.09_PT019H.grib2 2026-04-30 14:45 622K
20260430T12Z_MSC_RDPS_RelativeHumidity_IsbL-0250_RLatLon0.09_PT019H.grib2 2026-04-30 14:45 696K
20260430T12Z_MSC_RDPS_RelativeHumidity_IsbL-0275_RLatLon0.09_PT019H.grib2 2026-04-30 14:45 720K
20260430T12Z_MSC_RDPS_RelativeHumidity_IsbL-0300_RLatLon0.09_PT019H.grib2 2026-04-30 14:45 764K
20260430T12Z_MSC_RDPS_RelativeHumidity_IsbL-0350_RLatLon0.09_PT019H.grib2 2026-04-30 14:45 782K
20260430T12Z_MSC_RDPS_RelativeHumidity_IsbL-0400_RLatLon0.09_PT019H.grib2 2026-04-30 14:45 794K
20260430T12Z_MSC_RDPS_RelativeHumidity_IsbL-0450_RLatLon0.09_PT019H.grib2 2026-04-30 14:45 797K
20260430T12Z_MSC_RDPS_RelativeHumidity_IsbL-0500_RLatLon0.09_PT019H.grib2 2026-04-30 14:45 806K
20260430T12Z_MSC_RDPS_RelativeHumidity_IsbL-0550_RLatLon0.09_PT019H.grib2 2026-04-30 14:45 815K
20260430T12Z_MSC_RDPS_RelativeHumidity_IsbL-0600_RLatLon0.09_PT019H.grib2 2026-04-30 14:45 854K
20260430T12Z_MSC_RDPS_RelativeHumidity_IsbL-0650_RLatLon0.09_PT019H.grib2 2026-04-30 14:45 871K
20260430T12Z_MSC_RDPS_RelativeHumidity_IsbL-0700_RLatLon0.09_PT019H.grib2 2026-04-30 14:45 883K
20260430T12Z_MSC_RDPS_RelativeHumidity_IsbL-0750_RLatLon0.09_PT019H.grib2 2026-04-30 14:45 927K
20260430T12Z_MSC_RDPS_RelativeHumidity_IsbL-0800_RLatLon0.09_PT019H.grib2 2026-04-30 14:45 1.0M
20260430T12Z_MSC_RDPS_RelativeHumidity_IsbL-0850_RLatLon0.09_PT019H.grib2 2026-04-30 14:45 1.0M
20260430T12Z_MSC_RDPS_RelativeHumidity_IsbL-0875_RLatLon0.09_PT019H.grib2 2026-04-30 14:45 1.0M
20260430T12Z_MSC_RDPS_RelativeHumidity_IsbL-0900_RLatLon0.09_PT019H.grib2 2026-04-30 14:45 1.1M
20260430T12Z_MSC_RDPS_RelativeHumidity_IsbL-0925_RLatLon0.09_PT019H.grib2 2026-04-30 14:45 1.0M
20260430T12Z_MSC_RDPS_RelativeHumidity_IsbL-0950_RLatLon0.09_PT019H.grib2 2026-04-30 14:45 1.1M
20260430T12Z_MSC_RDPS_RelativeHumidity_IsbL-0970_RLatLon0.09_PT019H.grib2 2026-04-30 14:45 1.0M
20260430T12Z_MSC_RDPS_RelativeHumidity_IsbL-0985_RLatLon0.09_PT019H.grib2 2026-04-30 14:45 1.0M
20260430T12Z_MSC_RDPS_RelativeHumidity_IsbL-1000_RLatLon0.09_PT019H.grib2 2026-04-30 14:45 1.0M
20260430T12Z_MSC_RDPS_RelativeHumidity_IsbL-1015_RLatLon0.09_PT019H.grib2 2026-04-30 14:45 1.0M
20260430T12Z_MSC_RDPS_Runoff-Accum_Sfc_RLatLon0.09_PT019H.grib2 2026-04-30 14:45 48K
20260430T12Z_MSC_RDPS_SWEATIndex_Sfc_RLatLon0.09_PT019H.grib2 2026-04-30 14:45 2.4M
20260430T12Z_MSC_RDPS_SeeingIndex_EAtm_RLatLon0.09_PT019H.grib2 2026-04-30 14:45 1.0M
20260430T12Z_MSC_RDPS_SensibleHeatNetFlux_Sfc_RLatLon0.09_PT019H.grib2 2026-04-30 14:45 287K
20260430T12Z_MSC_RDPS_ShowalterIndex_IsbL-0500_RLatLon0.09_PT019H.grib2 2026-04-30 14:45 2.6M
20260430T12Z_MSC_RDPS_SkyTransparencyIndex_EAtm_RLatLon0.09_PT019H.grib2 2026-04-30 14:45 688K
20260430T12Z_MSC_RDPS_Snow-Accum1h_Sfc_RLatLon0.09_PT019H.grib2 2026-04-30 14:45 439K
20260430T12Z_MSC_RDPS_Snow-Accum_Sfc_RLatLon0.09_PT019H.grib2 2026-04-30 14:45 650K
20260430T12Z_MSC_RDPS_SnowDensity_Sfc_RLatLon0.09_PT019H.grib2 2026-04-30 14:45 172K
20260430T12Z_MSC_RDPS_SnowDepth_Sfc_RLatLon0.09_PT019H.grib2 2026-04-30 14:45 668K
20260430T12Z_MSC_RDPS_SoilTemp_DBS-0to10cm_RLatLon0.09_PT019H.grib2 2026-04-30 14:45 218K
20260430T12Z_MSC_RDPS_SoilTemp_Sfc_RLatLon0.09_PT019H.grib2 2026-04-30 14:45 266K
20260430T12Z_MSC_RDPS_SoilVolumetricIceContent_Sfc_RLatLon0.09_PT019H.grib2 2026-04-30 14:45 162K
20260430T12Z_MSC_RDPS_SoilVolumetricWaterContent_DBS-0to10cm_RLatLon0.09_PT019H.grib2 2026-04-30 14:45 268K
20260430T12Z_MSC_RDPS_SoilVolumetricWaterContent_DBS-0to1cm_RLatLon0.09_PT019H.grib2 2026-04-30 14:45 336K
20260430T12Z_MSC_RDPS_SpecificHumidity_AGL-120m_RLatLon0.09_PT019H.grib2 2026-04-30 14:45 485K
20260430T12Z_MSC_RDPS_SpecificHumidity_AGL-2m_RLatLon0.09_PT019H.grib2 2026-04-30 14:45 650K
20260430T12Z_MSC_RDPS_SpecificHumidity_AGL-40m_RLatLon0.09_PT019H.grib2 2026-04-30 14:45 490K
20260430T12Z_MSC_RDPS_SpecificHumidity_AGL-80m_RLatLon0.09_PT019H.grib2 2026-04-30 14:45 486K
20260430T12Z_MSC_RDPS_SpecificHumidity_IsbL-0001_RLatLon0.09_PT019H.grib2 2026-04-30 14:45 387K
20260430T12Z_MSC_RDPS_SpecificHumidity_IsbL-0005_RLatLon0.09_PT019H.grib2 2026-04-30 14:45 363K
20260430T12Z_MSC_RDPS_SpecificHumidity_IsbL-0010_RLatLon0.09_PT019H.grib2 2026-04-30 14:45 396K
20260430T12Z_MSC_RDPS_SpecificHumidity_IsbL-0020_RLatLon0.09_PT019H.grib2 2026-04-30 14:45 387K
20260430T12Z_MSC_RDPS_SpecificHumidity_IsbL-0030_RLatLon0.09_PT019H.grib2 2026-04-30 14:45 371K
20260430T12Z_MSC_RDPS_SpecificHumidity_IsbL-0050_RLatLon0.09_PT019H.grib2 2026-04-30 14:45 487K
20260430T12Z_MSC_RDPS_SpecificHumidity_IsbL-0100_RLatLon0.09_PT019H.grib2 2026-04-30 14:45 430K
20260430T12Z_MSC_RDPS_SpecificHumidity_IsbL-0150_RLatLon0.09_PT019H.grib2 2026-04-30 14:45 452K
20260430T12Z_MSC_RDPS_SpecificHumidity_IsbL-0175_RLatLon0.09_PT019H.grib2 2026-04-30 14:45 529K
20260430T12Z_MSC_RDPS_SpecificHumidity_IsbL-0200_RLatLon0.09_PT019H.grib2 2026-04-30 14:45 445K
20260430T12Z_MSC_RDPS_SpecificHumidity_IsbL-0225_RLatLon0.09_PT019H.grib2 2026-04-30 14:45 451K
20260430T12Z_MSC_RDPS_SpecificHumidity_IsbL-0250_RLatLon0.09_PT019H.grib2 2026-04-30 14:45 516K
20260430T12Z_MSC_RDPS_SpecificHumidity_IsbL-0275_RLatLon0.09_PT019H.grib2 2026-04-30 14:45 474K
20260430T12Z_MSC_RDPS_SpecificHumidity_IsbL-0300_RLatLon0.09_PT019H.grib2 2026-04-30 14:45 449K
20260430T12Z_MSC_RDPS_SpecificHumidity_IsbL-0350_RLatLon0.09_PT019H.grib2 2026-04-30 14:45 441K
20260430T12Z_MSC_RDPS_SpecificHumidity_IsbL-0400_RLatLon0.09_PT019H.grib2 2026-04-30 14:45 520K
20260430T12Z_MSC_RDPS_SpecificHumidity_IsbL-0450_RLatLon0.09_PT019H.grib2 2026-04-30 14:45 571K
20260430T12Z_MSC_RDPS_SpecificHumidity_IsbL-0500_RLatLon0.09_PT019H.grib2 2026-04-30 14:45 502K
20260430T12Z_MSC_RDPS_SpecificHumidity_IsbL-0550_RLatLon0.09_PT019H.grib2 2026-04-30 14:45 577K
20260430T12Z_MSC_RDPS_SpecificHumidity_IsbL-0600_RLatLon0.09_PT019H.grib2 2026-04-30 14:45 634K
20260430T12Z_MSC_RDPS_SpecificHumidity_IsbL-0650_RLatLon0.09_PT019H.grib2 2026-04-30 14:45 553K
20260430T12Z_MSC_RDPS_SpecificHumidity_IsbL-0700_RLatLon0.09_PT019H.grib2 2026-04-30 14:45 595K
20260430T12Z_MSC_RDPS_SpecificHumidity_IsbL-0750_RLatLon0.09_PT019H.grib2 2026-04-30 14:45 646K
20260430T12Z_MSC_RDPS_SpecificHumidity_IsbL-0800_RLatLon0.09_PT019H.grib2 2026-04-30 14:45 720K
20260430T12Z_MSC_RDPS_SpecificHumidity_IsbL-0850_RLatLon0.09_PT019H.grib2 2026-04-30 14:45 789K
20260430T12Z_MSC_RDPS_SpecificHumidity_IsbL-0875_RLatLon0.09_PT019H.grib2 2026-04-30 14:45 817K
20260430T12Z_MSC_RDPS_SpecificHumidity_IsbL-0900_RLatLon0.09_PT019H.grib2 2026-04-30 14:45 832K
20260430T12Z_MSC_RDPS_SpecificHumidity_IsbL-0925_RLatLon0.09_PT019H.grib2 2026-04-30 14:45 832K
20260430T12Z_MSC_RDPS_SpecificHumidity_IsbL-0950_RLatLon0.09_PT019H.grib2 2026-04-30 14:45 836K
20260430T12Z_MSC_RDPS_SpecificHumidity_IsbL-0970_RLatLon0.09_PT019H.grib2 2026-04-30 14:45 826K
20260430T12Z_MSC_RDPS_SpecificHumidity_IsbL-0985_RLatLon0.09_PT019H.grib2 2026-04-30 14:45 676K
20260430T12Z_MSC_RDPS_SpecificHumidity_IsbL-1000_RLatLon0.09_PT019H.grib2 2026-04-30 14:45 668K
20260430T12Z_MSC_RDPS_SpecificHumidity_IsbL-1015_RLatLon0.09_PT019H.grib2 2026-04-30 14:45 658K
20260430T12Z_MSC_RDPS_SpecificHumidity_Sfc_RLatLon0.09_PT019H.grib2 2026-04-30 14:45 293K
20260430T12Z_MSC_RDPS_StormRelativeHelicity_EtaL-10000_RLatLon0.09_PT019H.grib2 2026-04-30 14:45 1.1M
20260430T12Z_MSC_RDPS_StormSeverityIndex_EtaL-10000_RLatLon0.09_PT019H.grib2 2026-04-30 14:45 1.2M
20260430T12Z_MSC_RDPS_Thickness_IsbL-0850to0700_RLatLon0.09_PT019H.grib2 2026-04-30 14:45 176K
20260430T12Z_MSC_RDPS_Thickness_IsbL-1000to0500_RLatLon0.09_PT019H.grib2 2026-04-30 14:45 195K
20260430T12Z_MSC_RDPS_Thickness_IsbL-1000to0850_RLatLon0.09_PT019H.grib2 2026-04-30 14:45 258K
20260430T12Z_MSC_RDPS_TotalCloudCover_Sfc_RLatLon0.09_PT019H.grib2 2026-04-30 14:45 654K
20260430T12Z_MSC_RDPS_TotalTotalsIndex_Sfc_RLatLon0.09_PT019H.grib2 2026-04-30 14:45 2.4M
20260430T12Z_MSC_RDPS_UVIndex-ClearSky_Sfc_RLatLon0.09_PT019H.grib2 2026-04-30 14:45 123K
20260430T12Z_MSC_RDPS_UVIndex_Sfc_RLatLon0.09_PT019H.grib2 2026-04-30 14:45 197K
20260430T12Z_MSC_RDPS_UpwardLongwaveRadiationFlux_NTAtm_RLatLon0.09_PT019H.grib2 2026-04-30 14:45 483K
20260430T12Z_MSC_RDPS_UpwardShortwaveRadiationFlux_NTAtm_RLatLon0.09_PT019H.grib2 2026-04-30 14:45 169K
20260430T12Z_MSC_RDPS_VerticalVelocity_IsbL-0250_RLatLon0.09_PT019H.grib2 2026-04-30 14:45 549K
20260430T12Z_MSC_RDPS_VerticalVelocity_IsbL-0500_RLatLon0.09_PT019H.grib2 2026-04-30 14:45 538K
20260430T12Z_MSC_RDPS_VerticalVelocity_IsbL-0700_RLatLon0.09_PT019H.grib2 2026-04-30 14:45 587K
20260430T12Z_MSC_RDPS_VerticalVelocity_IsbL-0850_RLatLon0.09_PT019H.grib2 2026-04-30 14:45 695K
20260430T12Z_MSC_RDPS_VerticalWindShear_EtaL-6500_RLatLon0.09_PT019H.grib2 2026-04-30 14:45 1.2M
20260430T12Z_MSC_RDPS_WindChill_Sfc_RLatLon0.09_PT019H.grib2 2026-04-30 14:45 1.1M
20260430T12Z_MSC_RDPS_WindDir_AGL-10m_RLatLon0.09_PT019H.grib2 2026-04-30 14:45 1.0M
20260430T12Z_MSC_RDPS_WindDir_AGL-120m_RLatLon0.09_PT019H.grib2 2026-04-30 14:45 603K
20260430T12Z_MSC_RDPS_WindDir_AGL-40m_RLatLon0.09_PT019H.grib2 2026-04-30 14:45 642K
20260430T12Z_MSC_RDPS_WindDir_AGL-80m_RLatLon0.09_PT019H.grib2 2026-04-30 14:45 618K
20260430T12Z_MSC_RDPS_WindDir_IsbL-0001_RLatLon0.09_PT019H.grib2 2026-04-30 14:45 312K
20260430T12Z_MSC_RDPS_WindDir_IsbL-0005_RLatLon0.09_PT019H.grib2 2026-04-30 14:45 362K
20260430T12Z_MSC_RDPS_WindDir_IsbL-0010_RLatLon0.09_PT019H.grib2 2026-04-30 14:45 377K
20260430T12Z_MSC_RDPS_WindDir_IsbL-0020_RLatLon0.09_PT019H.grib2 2026-04-30 14:45 415K
20260430T12Z_MSC_RDPS_WindDir_IsbL-0030_RLatLon0.09_PT019H.grib2 2026-04-30 14:45 417K
20260430T12Z_MSC_RDPS_WindDir_IsbL-0050_RLatLon0.09_PT019H.grib2 2026-04-30 14:45 424K
20260430T12Z_MSC_RDPS_WindDir_IsbL-0100_RLatLon0.09_PT019H.grib2 2026-04-30 14:45 423K
20260430T12Z_MSC_RDPS_WindDir_IsbL-0150_RLatLon0.09_PT019H.grib2 2026-04-30 14:45 428K
20260430T12Z_MSC_RDPS_WindDir_IsbL-0175_RLatLon0.09_PT019H.grib2 2026-04-30 14:45 448K
20260430T12Z_MSC_RDPS_WindDir_IsbL-0200_RLatLon0.09_PT019H.grib2 2026-04-30 14:45 457K
20260430T12Z_MSC_RDPS_WindDir_IsbL-0225_RLatLon0.09_PT019H.grib2 2026-04-30 14:45 463K
20260430T12Z_MSC_RDPS_WindDir_IsbL-0250_RLatLon0.09_PT019H.grib2 2026-04-30 14:45 460K
20260430T12Z_MSC_RDPS_WindDir_IsbL-0275_RLatLon0.09_PT019H.grib2 2026-04-30 14:45 479K
20260430T12Z_MSC_RDPS_WindDir_IsbL-0300_RLatLon0.09_PT019H.grib2 2026-04-30 14:45 475K
20260430T12Z_MSC_RDPS_WindDir_IsbL-0350_RLatLon0.09_PT019H.grib2 2026-04-30 14:45 494K
20260430T12Z_MSC_RDPS_WindDir_IsbL-0400_RLatLon0.09_PT019H.grib2 2026-04-30 14:45 507K
20260430T12Z_MSC_RDPS_WindDir_IsbL-0450_RLatLon0.09_PT019H.grib2 2026-04-30 14:45 519K
20260430T12Z_MSC_RDPS_WindDir_IsbL-0500_RLatLon0.09_PT019H.grib2 2026-04-30 14:45 536K
20260430T12Z_MSC_RDPS_WindDir_IsbL-0550_RLatLon0.09_PT019H.grib2 2026-04-30 14:45 559K
20260430T12Z_MSC_RDPS_WindDir_IsbL-0600_RLatLon0.09_PT019H.grib2 2026-04-30 14:45 589K
20260430T12Z_MSC_RDPS_WindDir_IsbL-0650_RLatLon0.09_PT019H.grib2 2026-04-30 14:45 633K
20260430T12Z_MSC_RDPS_WindDir_IsbL-0700_RLatLon0.09_PT019H.grib2 2026-04-30 14:45 683K
20260430T12Z_MSC_RDPS_WindDir_IsbL-0750_RLatLon0.09_PT019H.grib2 2026-04-30 14:45 724K
20260430T12Z_MSC_RDPS_WindDir_IsbL-0800_RLatLon0.09_PT019H.grib2 2026-04-30 14:45 786K
20260430T12Z_MSC_RDPS_WindDir_IsbL-0850_RLatLon0.09_PT019H.grib2 2026-04-30 14:45 855K
20260430T12Z_MSC_RDPS_WindDir_IsbL-0875_RLatLon0.09_PT019H.grib2 2026-04-30 14:45 882K
20260430T12Z_MSC_RDPS_WindDir_IsbL-0900_RLatLon0.09_PT019H.grib2 2026-04-30 14:45 899K
20260430T12Z_MSC_RDPS_WindDir_IsbL-0925_RLatLon0.09_PT019H.grib2 2026-04-30 14:45 910K
20260430T12Z_MSC_RDPS_WindDir_IsbL-0950_RLatLon0.09_PT019H.grib2 2026-04-30 14:45 915K
20260430T12Z_MSC_RDPS_WindDir_IsbL-0970_RLatLon0.09_PT019H.grib2 2026-04-30 14:45 923K
20260430T12Z_MSC_RDPS_WindDir_IsbL-0985_RLatLon0.09_PT019H.grib2 2026-04-30 14:45 932K
20260430T12Z_MSC_RDPS_WindDir_IsbL-1000_RLatLon0.09_PT019H.grib2 2026-04-30 14:45 950K
20260430T12Z_MSC_RDPS_WindDir_IsbL-1015_RLatLon0.09_PT019H.grib2 2026-04-30 14:45 969K
20260430T12Z_MSC_RDPS_WindGust-Max_AGL-10m_RLatLon0.09_PT019H.grib2 2026-04-30 14:45 1.0M
20260430T12Z_MSC_RDPS_WindGust-Min_AGL-10m_RLatLon0.09_PT019H.grib2 2026-04-30 14:45 963K
20260430T12Z_MSC_RDPS_WindGust_AGL-10m_RLatLon0.09_PT019H.grib2 2026-04-30 14:45 1.0M
20260430T12Z_MSC_RDPS_WindSpeed_AGL-10m_RLatLon0.09_PT019H.grib2 2026-04-30 14:45 831K
20260430T12Z_MSC_RDPS_WindSpeed_AGL-120m_RLatLon0.09_PT019H.grib2 2026-04-30 14:45 536K
20260430T12Z_MSC_RDPS_WindSpeed_AGL-40m_RLatLon0.09_PT019H.grib2 2026-04-30 14:45 537K
20260430T12Z_MSC_RDPS_WindSpeed_AGL-80m_RLatLon0.09_PT019H.grib2 2026-04-30 14:45 536K
20260430T12Z_MSC_RDPS_WindSpeed_IsbL-0001_RLatLon0.09_PT019H.grib2 2026-04-30 14:45 251K
20260430T12Z_MSC_RDPS_WindSpeed_IsbL-0005_RLatLon0.09_PT019H.grib2 2026-04-30 14:45 380K
20260430T12Z_MSC_RDPS_WindSpeed_IsbL-0010_RLatLon0.09_PT019H.grib2 2026-04-30 14:45 393K
20260430T12Z_MSC_RDPS_WindSpeed_IsbL-0020_RLatLon0.09_PT019H.grib2 2026-04-30 14:45 318K
20260430T12Z_MSC_RDPS_WindSpeed_IsbL-0030_RLatLon0.09_PT019H.grib2 2026-04-30 14:45 318K
20260430T12Z_MSC_RDPS_WindSpeed_IsbL-0050_RLatLon0.09_PT019H.grib2 2026-04-30 14:45 348K
20260430T12Z_MSC_RDPS_WindSpeed_IsbL-0100_RLatLon0.09_PT019H.grib2 2026-04-30 14:45 472K
20260430T12Z_MSC_RDPS_WindSpeed_IsbL-0150_RLatLon0.09_PT019H.grib2 2026-04-30 14:45 381K
20260430T12Z_MSC_RDPS_WindSpeed_IsbL-0175_RLatLon0.09_PT019H.grib2 2026-04-30 14:45 427K
20260430T12Z_MSC_RDPS_WindSpeed_IsbL-0200_RLatLon0.09_PT019H.grib2 2026-04-30 14:45 443K
20260430T12Z_MSC_RDPS_WindSpeed_IsbL-0225_RLatLon0.09_PT019H.grib2 2026-04-30 14:45 450K
20260430T12Z_MSC_RDPS_WindSpeed_IsbL-0250_RLatLon0.09_PT019H.grib2 2026-04-30 14:45 453K
20260430T12Z_MSC_RDPS_WindSpeed_IsbL-0275_RLatLon0.09_PT019H.grib2 2026-04-30 14:45 472K
20260430T12Z_MSC_RDPS_WindSpeed_IsbL-0300_RLatLon0.09_PT019H.grib2 2026-04-30 14:45 467K
20260430T12Z_MSC_RDPS_WindSpeed_IsbL-0350_RLatLon0.09_PT019H.grib2 2026-04-30 14:45 476K
20260430T12Z_MSC_RDPS_WindSpeed_IsbL-0400_RLatLon0.09_PT019H.grib2 2026-04-30 14:45 478K
20260430T12Z_MSC_RDPS_WindSpeed_IsbL-0450_RLatLon0.09_PT019H.grib2 2026-04-30 14:45 476K
20260430T12Z_MSC_RDPS_WindSpeed_IsbL-0500_RLatLon0.09_PT019H.grib2 2026-04-30 14:45 460K
20260430T12Z_MSC_RDPS_WindSpeed_IsbL-0550_RLatLon0.09_PT019H.grib2 2026-04-30 14:45 461K
20260430T12Z_MSC_RDPS_WindSpeed_IsbL-0600_RLatLon0.09_PT019H.grib2 2026-04-30 14:45 469K
20260430T12Z_MSC_RDPS_WindSpeed_IsbL-0650_RLatLon0.09_PT019H.grib2 2026-04-30 14:45 612K
20260430T12Z_MSC_RDPS_WindSpeed_IsbL-0700_RLatLon0.09_PT019H.grib2 2026-04-30 14:45 639K
20260430T12Z_MSC_RDPS_WindSpeed_IsbL-0750_RLatLon0.09_PT019H.grib2 2026-04-30 14:45 710K
20260430T12Z_MSC_RDPS_WindSpeed_IsbL-0800_RLatLon0.09_PT019H.grib2 2026-04-30 14:45 752K
20260430T12Z_MSC_RDPS_WindSpeed_IsbL-0850_RLatLon0.09_PT019H.grib2 2026-04-30 14:45 805K
20260430T12Z_MSC_RDPS_WindSpeed_IsbL-0875_RLatLon0.09_PT019H.grib2 2026-04-30 14:45 824K
20260430T12Z_MSC_RDPS_WindSpeed_IsbL-0900_RLatLon0.09_PT019H.grib2 2026-04-30 14:45 841K
20260430T12Z_MSC_RDPS_WindSpeed_IsbL-0925_RLatLon0.09_PT019H.grib2 2026-04-30 14:45 855K
20260430T12Z_MSC_RDPS_WindSpeed_IsbL-0950_RLatLon0.09_PT019H.grib2 2026-04-30 14:45 857K
20260430T12Z_MSC_RDPS_WindSpeed_IsbL-0970_RLatLon0.09_PT019H.grib2 2026-04-30 14:45 857K
20260430T12Z_MSC_RDPS_WindSpeed_IsbL-0985_RLatLon0.09_PT019H.grib2 2026-04-30 14:45 848K
20260430T12Z_MSC_RDPS_WindSpeed_IsbL-1000_RLatLon0.09_PT019H.grib2 2026-04-30 14:45 840K
20260430T12Z_MSC_RDPS_WindSpeed_IsbL-1015_RLatLon0.09_PT019H.grib2 2026-04-30 14:45 832K
20260430T12Z_MSC_RDPS_WindU_AGL-10m_RLatLon0.09_PT019H.grib2 2026-04-30 14:45 428K
20260430T12Z_MSC_RDPS_WindU_AGL-120m_RLatLon0.09_PT019H.grib2 2026-04-30 14:45 533K
20260430T12Z_MSC_RDPS_WindU_AGL-40m_RLatLon0.09_PT019H.grib2 2026-04-30 14:45 536K
20260430T12Z_MSC_RDPS_WindU_AGL-80m_RLatLon0.09_PT019H.grib2 2026-04-30 14:45 535K
20260430T12Z_MSC_RDPS_WindU_IsbL-0001_RLatLon0.09_PT019H.grib2 2026-04-30 14:45 290K
20260430T12Z_MSC_RDPS_WindU_IsbL-0005_RLatLon0.09_PT019H.grib2 2026-04-30 14:45 284K
20260430T12Z_MSC_RDPS_WindU_IsbL-0010_RLatLon0.09_PT019H.grib2 2026-04-30 14:45 294K
20260430T12Z_MSC_RDPS_WindU_IsbL-0020_RLatLon0.09_PT019H.grib2 2026-04-30 14:45 349K
20260430T12Z_MSC_RDPS_WindU_IsbL-0030_RLatLon0.09_PT019H.grib2 2026-04-30 14:45 311K
20260430T12Z_MSC_RDPS_WindU_IsbL-0050_RLatLon0.09_PT019H.grib2 2026-04-30 14:45 342K
20260430T12Z_MSC_RDPS_WindU_IsbL-0100_RLatLon0.09_PT019H.grib2 2026-04-30 14:45 333K
20260430T12Z_MSC_RDPS_WindU_IsbL-0150_RLatLon0.09_PT019H.grib2 2026-04-30 14:45 398K
20260430T12Z_MSC_RDPS_WindU_IsbL-0175_RLatLon0.09_PT019H.grib2 2026-04-30 14:45 421K
20260430T12Z_MSC_RDPS_WindU_IsbL-0200_RLatLon0.09_PT019H.grib2 2026-04-30 14:45 338K
20260430T12Z_MSC_RDPS_WindU_IsbL-0225_RLatLon0.09_PT019H.grib2 2026-04-30 14:45 343K
20260430T12Z_MSC_RDPS_WindU_IsbL-0250_RLatLon0.09_PT019H.grib2 2026-04-30 14:45 345K
20260430T12Z_MSC_RDPS_WindU_IsbL-0275_RLatLon0.09_PT019H.grib2 2026-04-30 14:45 360K
20260430T12Z_MSC_RDPS_WindU_IsbL-0300_RLatLon0.09_PT019H.grib2 2026-04-30 14:45 354K
20260430T12Z_MSC_RDPS_WindU_IsbL-0350_RLatLon0.09_PT019H.grib2 2026-04-30 14:45 361K
20260430T12Z_MSC_RDPS_WindU_IsbL-0400_RLatLon0.09_PT019H.grib2 2026-04-30 14:45 363K
20260430T12Z_MSC_RDPS_WindU_IsbL-0450_RLatLon0.09_PT019H.grib2 2026-04-30 14:45 465K
20260430T12Z_MSC_RDPS_WindU_IsbL-0500_RLatLon0.09_PT019H.grib2 2026-04-30 14:45 467K
20260430T12Z_MSC_RDPS_WindU_IsbL-0550_RLatLon0.09_PT019H.grib2 2026-04-30 14:45 468K
20260430T12Z_MSC_RDPS_WindU_IsbL-0600_RLatLon0.09_PT019H.grib2 2026-04-30 14:45 477K
20260430T12Z_MSC_RDPS_WindU_IsbL-0650_RLatLon0.09_PT019H.grib2 2026-04-30 14:45 482K
20260430T12Z_MSC_RDPS_WindU_IsbL-0700_RLatLon0.09_PT019H.grib2 2026-04-30 14:45 507K
20260430T12Z_MSC_RDPS_WindU_IsbL-0750_RLatLon0.09_PT019H.grib2 2026-04-30 14:45 531K
20260430T12Z_MSC_RDPS_WindU_IsbL-0800_RLatLon0.09_PT019H.grib2 2026-04-30 14:45 567K
20260430T12Z_MSC_RDPS_WindU_IsbL-0850_RLatLon0.09_PT019H.grib2 2026-04-30 14:45 613K
20260430T12Z_MSC_RDPS_WindU_IsbL-0875_RLatLon0.09_PT019H.grib2 2026-04-30 14:45 630K
20260430T12Z_MSC_RDPS_WindU_IsbL-0900_RLatLon0.09_PT019H.grib2 2026-04-30 14:45 643K
20260430T12Z_MSC_RDPS_WindU_IsbL-0925_RLatLon0.09_PT019H.grib2 2026-04-30 14:45 653K
20260430T12Z_MSC_RDPS_WindU_IsbL-0950_RLatLon0.09_PT019H.grib2 2026-04-30 14:45 654K
20260430T12Z_MSC_RDPS_WindU_IsbL-0970_RLatLon0.09_PT019H.grib2 2026-04-30 14:45 793K
20260430T12Z_MSC_RDPS_WindU_IsbL-0985_RLatLon0.09_PT019H.grib2 2026-04-30 14:45 786K
20260430T12Z_MSC_RDPS_WindU_IsbL-1000_RLatLon0.09_PT019H.grib2 2026-04-30 14:45 780K
20260430T12Z_MSC_RDPS_WindU_IsbL-1015_RLatLon0.09_PT019H.grib2 2026-04-30 14:45 821K
20260430T12Z_MSC_RDPS_WindV_AGL-10m_RLatLon0.09_PT019H.grib2 2026-04-30 14:45 425K
20260430T12Z_MSC_RDPS_WindV_AGL-120m_RLatLon0.09_PT019H.grib2 2026-04-30 14:45 530K
20260430T12Z_MSC_RDPS_WindV_AGL-40m_RLatLon0.09_PT019H.grib2 2026-04-30 14:45 531K
20260430T12Z_MSC_RDPS_WindV_AGL-80m_RLatLon0.09_PT019H.grib2 2026-04-30 14:45 531K
20260430T12Z_MSC_RDPS_WindV_IsbL-0001_RLatLon0.09_PT019H.grib2 2026-04-30 14:45 293K
20260430T12Z_MSC_RDPS_WindV_IsbL-0005_RLatLon0.09_PT019H.grib2 2026-04-30 14:45 285K
20260430T12Z_MSC_RDPS_WindV_IsbL-0010_RLatLon0.09_PT019H.grib2 2026-04-30 14:45 297K
20260430T12Z_MSC_RDPS_WindV_IsbL-0020_RLatLon0.09_PT019H.grib2 2026-04-30 14:45 312K
20260430T12Z_MSC_RDPS_WindV_IsbL-0030_RLatLon0.09_PT019H.grib2 2026-04-30 14:45 313K
20260430T12Z_MSC_RDPS_WindV_IsbL-0050_RLatLon0.09_PT019H.grib2 2026-04-30 14:45 340K
20260430T12Z_MSC_RDPS_WindV_IsbL-0100_RLatLon0.09_PT019H.grib2 2026-04-30 14:45 331K
20260430T12Z_MSC_RDPS_WindV_IsbL-0150_RLatLon0.09_PT019H.grib2 2026-04-30 14:45 394K
20260430T12Z_MSC_RDPS_WindV_IsbL-0175_RLatLon0.09_PT019H.grib2 2026-04-30 14:45 419K
20260430T12Z_MSC_RDPS_WindV_IsbL-0200_RLatLon0.09_PT019H.grib2 2026-04-30 14:45 432K
20260430T12Z_MSC_RDPS_WindV_IsbL-0225_RLatLon0.09_PT019H.grib2 2026-04-30 14:45 339K
20260430T12Z_MSC_RDPS_WindV_IsbL-0250_RLatLon0.09_PT019H.grib2 2026-04-30 14:45 342K
20260430T12Z_MSC_RDPS_WindV_IsbL-0275_RLatLon0.09_PT019H.grib2 2026-04-30 14:45 357K
20260430T12Z_MSC_RDPS_WindV_IsbL-0300_RLatLon0.09_PT019H.grib2 2026-04-30 14:45 352K
20260430T12Z_MSC_RDPS_WindV_IsbL-0350_RLatLon0.09_PT019H.grib2 2026-04-30 14:45 462K
20260430T12Z_MSC_RDPS_WindV_IsbL-0400_RLatLon0.09_PT019H.grib2 2026-04-30 14:45 465K
20260430T12Z_MSC_RDPS_WindV_IsbL-0450_RLatLon0.09_PT019H.grib2 2026-04-30 14:45 462K
20260430T12Z_MSC_RDPS_WindV_IsbL-0500_RLatLon0.09_PT019H.grib2 2026-04-30 14:45 464K
20260430T12Z_MSC_RDPS_WindV_IsbL-0550_RLatLon0.09_PT019H.grib2 2026-04-30 14:45 466K
20260430T12Z_MSC_RDPS_WindV_IsbL-0600_RLatLon0.09_PT019H.grib2 2026-04-30 14:45 475K
20260430T12Z_MSC_RDPS_WindV_IsbL-0650_RLatLon0.09_PT019H.grib2 2026-04-30 14:45 479K
20260430T12Z_MSC_RDPS_WindV_IsbL-0700_RLatLon0.09_PT019H.grib2 2026-04-30 14:45 502K
20260430T12Z_MSC_RDPS_WindV_IsbL-0750_RLatLon0.09_PT019H.grib2 2026-04-30 14:45 525K
20260430T12Z_MSC_RDPS_WindV_IsbL-0800_RLatLon0.09_PT019H.grib2 2026-04-30 14:45 563K
20260430T12Z_MSC_RDPS_WindV_IsbL-0850_RLatLon0.09_PT019H.grib2 2026-04-30 14:45 611K
20260430T12Z_MSC_RDPS_WindV_IsbL-0875_RLatLon0.09_PT019H.grib2 2026-04-30 14:45 628K
20260430T12Z_MSC_RDPS_WindV_IsbL-0900_RLatLon0.09_PT019H.grib2 2026-04-30 14:45 642K
20260430T12Z_MSC_RDPS_WindV_IsbL-0925_RLatLon0.09_PT019H.grib2 2026-04-30 14:45 791K
20260430T12Z_MSC_RDPS_WindV_IsbL-0950_RLatLon0.09_PT019H.grib2 2026-04-30 14:45 792K
20260430T12Z_MSC_RDPS_WindV_IsbL-0970_RLatLon0.09_PT019H.grib2 2026-04-30 14:45 790K
20260430T12Z_MSC_RDPS_WindV_IsbL-0985_RLatLon0.09_PT019H.grib2 2026-04-30 14:45 782K
20260430T12Z_MSC_RDPS_WindV_IsbL-1000_RLatLon0.09_PT019H.grib2 2026-04-30 14:45 821K
20260430T12Z_MSC_RDPS_WindV_IsbL-1015_RLatLon0.09_PT019H.grib2 2026-04-30 14:45 814K